Tracking 29892 objects as of 21-Nov-2024
HD Live streaming from Space Station
objects crossing your sky now

SL-8 R/B

Track SL-8 R/B now!
10-day predictions


NORAD ID: 7426
Int'l Code: 1974-069B
Perigee: 1,359.7 km
Apogee: 1,427.8 km
Inclination: 74.1 °
Period: 113.5 minutes
Semi major axis: 7764 km
RCS: 5.4734 m2 (large)
Launch date: August 29, 1974
Source: Commonwealth of Independent States (former USSR) (CIS)
Launch site: PLESETSK MISSILE AND SPACE COMPLEX (PKMTR)

Note: This is a ROCKET BODY
Your satellite tracking list
Your tracking list is empty




NASA's NSSDC Master Catalog

Two Line Element Set (TLE):
1 07426U 74069B   24325.19440248  .00000026  00000-0  21485-3 0  9994
2 07426  74.0568 218.5147 0043795  29.7461 138.3737 12.68853252711290
Source of the keplerian elements: AFSPC